OBJECT A, 66313

Orbit data source: Space-Track

You're viewing an Uncataloged Satellite

Recently launched and/or uncataloged satellites may have evolving metadata. Metadata may include but not limited to: Owner, Maufacturer, Bus, Motor, and Mission.

OBJECT A, 66313 is a satellite owned by PLA SSF (CN) in LEO that was launched on Mon, 03 Nov 2025 UTC launched from the Wenchang Satellite Launch Center (WSC). Unknown objects in Earth's orbit typically refer to objects detected orbiting the Earth but have not yet been identified or cataloged. These objects could be anything from previously untracked satellites, spent rocket stages, debris from satellite collisions, or even natural meteoroids temporarily captured by Earth's gravity.

Loading next visibility...
Identifier
66313, 2025-250A
Orbit
LEO
Country
Flag of CNCN / PRC
Related business
Manufacturer
CAST
Mission
Operational spacecraft
Bus & Motor
YG46, LAE
Mass
~5,000 kg wet, ~2,500 kg dry
Launch date (UTC)
2025-11-03 (5 days ago)
Launch vehicle
Unknown
Launch site
Wenchang Satellite Launch Center (WSC)
Object type
Unknown
Shape & HBR
Unknown
Radar Cross Section
RCS unknown

Expand to show TLE details & history
Last TLE update: 4 days ago

TLE from 4 days ago
0 OBJECT A
1 66313U 25250A   25307.63352499  .00000024  00000-0  00000-0 0  9997
2 66313  20.0091 117.2258 2192615 125.8904 256.5231  7.10158267    27
Epoch: 2025-11-03T15:12Z
TLE epoch observation values (Epoch: 2025-11-03T15:12:16.559Z)
Latitude
0.00002°
Longitude
-153.97524°
Altitude
6,107.79 km
Speed
5.385 km/s
True Right ascension
07h 48m 54s
True Declination
0° 00' 00"
Sunlit
Object was in daylight at epoch
Visualization orbit readout
Latitude
Unknown
Longitude
Unknown
Altitude
Unknown
Speed
Unknown
Apparent Right ascension
Unknown
Apparent Declination
Unknown
Sunlit
N/A
Visualization observer readout
Local Sidereal Time
17:46:15
Azimuth
Unknown
Elevation
Unknown
Doppler factor
Unknown
Orbital elements
Apogee altitude
7,566.014 km
Perigee altitude
2,550.822 km
Semi-major axis
11,436.555 km
Eccentricity
0.21926
Inclination
20.0091°
RAAN
117.2258°
Arg. of periapsis
125.8904°
True anomaly
234.13641°
Mean anomaly
256.5231°
Eccentric anomaly
245.12575°
Mean motion
1.7746 °/min
Orbital period
202.86 mins
BSTAR
0
Loading maneuver chart data...
Computing Atmospheric mass density...
Loading historical data...
Loading historical data...
Loading historical data...
Loading historical data...
Loading historical data...
Loading historical data...
Loading historical data...
Other satellites on launch #250 in the year 2025 (2025-11-03 UTC)

Documentation

Showing up to 5 results
|